STARLINK-32344, 61719

Orbit data source: Space-Track

STARLINK-32344, 61719 is a payload satellite owned by SpaceX/Seattle (US) in LEO that was launched on Wed, 30 Oct 2024 UTC via an FALCON 9 launch vehicle from the Air Force Eastern Test Range (AFETR). Payloads include a variety of satellites, spacecraft, and rockets equipped with specific instruments for various scientific and technological missions. These include communications satellites like Starlink; space stations such as the ISS; scientific satellites like the Hubble; Earth observation satellites from companies like Planet Labs, Umbra, and HawkEye 360; GPS; miniature CubeSats for education and research; and military/defense satellites.

Loading next visibility...
STARLINK-32344 details
Identifier
61719, 2024-196N
Orbit
LEO
Last TLE update12 hours ago
Origin
Flag of USSpaceX/Seattle (US)
ManufacturerSpaceX/Seattle
MissionOperational spacecraft
Bus & MotorSTARLINK V2M, Unknown motor
Mass730 kg wet, ~700 kg dry
Launch date (UTC)
2024-10-30 (1 month ago)
Launch vehicle
FALCON 9
Launch site
Air Force Eastern Test Range (AFETR)
Object type
Payload
Rocket body
Debris
Shape & HBRUnknown
Radar Cross SectionLarge (>1 m²)

Expand to show TLE details & history

TLE from 12 hours ago
0 STARLINK-32344
1 61719U 24196N   24348.43103774  .00003066  00000-0  86617-4 0  9993
2 61719  53.1620  40.4634 0001717 106.2241 253.8953 15.39614981  8040
Epoch: 2024-12-13T10:20Z
Definitive object data (Epoch: 2024-12-13T10:20:41.66Z)
Latitude-0.00003°
Longitude162.69268°
Altitude448.476 km
Speed7.644 km/s
True Right ascension02h 41m 51s
True Declination0° 00' 00"
Sunlit
Object was in full shadow at TLE epoch
Visualization TLE readout
Latitude-47.92101°
Longitude104.70431°
Altitude464.819 km
Speed7.633 km/s
Apparent Right ascension04h 27m 07s
Apparent Declination-76° 20' 47"
Sunlit
Object is in daylight
Visualization observer readout
Local Sidereal Time21:02:50
Azimuth162.316° S
Elevation-43.522°
Doppler factor1
Orbital elements
Apogee altitude448.676 km
Perigee altitude446.332 km
Semi-major axis6,825.641 km
Eccentricity0.0001717
Inclination53.162°
RAAN40.4634°
Arg. of periapsis106.2241°
True anomaly253.8764°
Mean anomaly253.8953°
Eccentric anomaly253.88585°
Mean motion3.84882 °/min
BSTAR0.000086617
Orbital period93.54 mins
Loading maneuver chart data...
Loading historical data...
Loading historical data...
Loading historical data...
Loading historical data...
Loading historical data...
Loading historical data...
Loading historical data...

STARLINK-32344 Visibility forecast

Observer location: undefined°, undefined

Span
Click to sort rows by Start time (UTC) header in descending order
Start Az.
Max El. time (UTC)
Max El. Az.
Max El.
End time (UTC)
End Az.
5 mins2024-12-14 06:48:55.183Z256.419° W2024-12-14 06:50:55.183Z347.287° N38.012°2024-12-14 06:53:55.183Z41.914° NE
4 mins2024-12-14 11:43:55.183Z349.877° N2024-12-14 11:45:55.183Z34.152° NE18.279°2024-12-14 11:47:55.183Z70.787° E
5 mins2024-12-14 13:20:55.183Z302.242° NW2024-12-14 13:22:55.183Z250.027° W42.544°2024-12-14 13:25:55.183Z140.602° SSE
|